Location: Boiro
(42.6475°N, 8.8834°W)
Time: 00:40:36
(UTC+01:00)

Tiros 1 - Pass Details

Date: 04 December 2021
Orbit: 629 x 664 km, 48.4° (Epoch: 26 January)

Event Time Altitude Azimuth Distance (km) Brightness Sun altitude
Rises 21:25:25 0° 263° (W) 2,922 11.5 -36.6°
Reaches altitude 10° 21:27:47 10° 269° (W) 2,020 10.4 -37.0°
Enters shadow 21:28:54 17° 274° (W) 1,616 9.8 -37.2°
